Regional Weather Roundup
Issued by NWS Wakefield, VA

Home | Current Version | Previous Version | Graphics & Text | Print | Product List | Glossary On
Versions: 1 2 3 4 5 6 7 8 9 10 11 12 13 14 15 16 17 18 19 20 21 22 23 24 25 26 27 28 29 30 31 32 33 34 35 36 37 38 39 40 41 42 43 44 45 46 47 48 49 50
000
ASUS41 KAKQ 031410
RWRAKQ

REGIONAL WEATHER ROUNDUP
NATIONAL WEATHER SERVICE WAKEFIELD VA
900 AM EST TUE MAR 03 2015

Note: "fair" indicates few or no clouds below 12,000 feet with no
significant weather and/or obstructions to visibility. * = Denotes
station may not report precipitation (e.g., rain,snow,etc.),
thunder or fog.

VAZ042-051-052>054-056-031500-
NORTHERN VIRGINIA

CITY           SKY/WX    TMP DP  RH WIND       PRES   REMARKS
WASH NATIONAL  CLOUDY    33  15  47 E8        30.45F
DULLES         CLOUDY    30  14  51 SE6       30.43F
FORT BELVOIR   CLOUDY    31  14  49 VRB5      30.45F
QUANTICO       CLOUDY    32  16  51 E3        30.47S
FREDERICKSBRG* PTSUNNY   32  19  57 CALM      30.45S
STAFFORD*      PTSUNNY   31  13  46 E7        30.49S
WARRENTON      CLOUDY    32  22  68 CALM      30.43S
CULPEPER*      CLOUDY    32  18  55 CALM      30.44S
MANASSAS*      NOT AVBL
LEESBURG*      MOSUNNY   32  19  59 SE5       30.43S
WINCHESTER     PTSUNNY   32  12  43 SE7       30.38S
FRONT ROYAL*   FAIR      30  18  59 CALM      30.36F
LURAY*         CLOUDY    32  21  64 CALM      30.37S
$$

VAZ048-049-060>072-079>083-031500-
CENTRAL AND SOUTH CENTRAL VIRGINIA

CITY           SKY/WX    TMP DP  RH WIND       PRES   REMARKS
RICHMOND       CLOUDY    33  17  51 SE6       30.45R
CHESTERFIELD*  CLOUDY    34  10  37 E6        30.46R
PETERSBURG*    CLOUDY    34  19  53 E8        30.45R
HANOVER        CLOUDY    32  16  51 VRB6      30.45S
TAPPAHANNOCK*  MOSUNNY   32  17  53 E7        30.45F
QUINTON*       CLOUDY    32  19  59 E6        30.46R
CHARLOTTSVILLE CLOUDY    31  16  54 S3        30.42R
GORDONSVILLE*  CLOUDY    30  17  56 CALM      30.43R
ORANGE*        CLOUDY    32  19  59 CALM      30.45R
LOUISA*        CLOUDY    30  18  59 CALM      30.42R
BUMPASS*       CLOUDY    31  17  56 CALM      30.45R
FARMVILLE*     CLOUDY    36  17  47 E5        30.44R
CREWE*         CLOUDY    32  15  49 CALM      30.45R
FORT PICKETT*  CLOUDY    32  17  53 E6        30.44R
CHASE CITY*    CLOUDY    35  21  56 E6        30.42R
CLARKSVILLE*   CLOUDY    34  21  60 E7        30.43R
SOUTH HILL*    CLOUDY    32  23  68 CALM      30.50R
LAWRENCEVILLE* CLOUDY    32  21  64 CALM      30.44R
EMPORIA*       CLOUDY    32  21  64 NE3       30.46R
$$

VAZ088>098-031500-
SOUTHEAST VIRGINIA

CITY           SKY/WX    TMP DP  RH WIND       PRES   REMARKS
NORFOLK        MOSUNNY   33  24  69 NE9       30.44S
VIRGINIA BEACH PTSUNNY   36  25  64 NE7       30.45R
NORFOLK NAVAL  CLOUDY    36  22  56 NE8       30.46F
WEST POINT*    CLOUDY    35  21  56 E8        30.47S
SALUDA*        CLOUDY    32  19  58 E7        30.45F
NEWPORT NEWS   PTSUNNY   35  20  54 E10       30.45F
LANGLEY AFB    DRIZZLE   32  19  59 E10       30.44F WCI  24
FORT EUSTIS    CLOUDY    34  21  60 E6        30.42F
WILLIAMSBURG*  PTSUNNY   36  25  64 E8        30.44F
HR EXEC AP*    PTSUNNY   34  21  60 NE7       30.47S
FRANKLIN*      PTSUNNY   32  24  70 NE6       30.44F
WAKEFIELD      CLOUDY    33  21  61 VRB5      30.44F
$$

VAZ020-022-025-037-045-031500-
WEST CENTRAL AND SOUTHWEST VIRGINIA

CITY           SKY/WX    TMP DP  RH WIND       PRES   REMARKS
STAUNTON*      CLOUDY    32  18  55 S8        30.37S
WAYNESBORO*    CLOUDY    30  16  54 SE7       30.34S
HOT SPRINGS VA CLOUDY    25  17  73 S10       30.19F WCI  15
LYNCHBURG      CLOUDY    32  18  56 E3        30.41R
DANVILLE       CLOUDY    38  22  52 E5        30.41R
SOUTH BOSTON*  CLOUDY    36  20  53 E6        30.41R
MARTINSVILLE   CLOUDY    38  25  60 CALM      30.40S
ROANOKE        CLOUDY    33  23  66 SE10      30.39S WCI  25
BLACKSBURG     MIX PCPN  30  27  89 E7        30.33S
DUBLIN*        MIX PCPN  34  33  96 E3        30.31S
MARION*        CLOUDY    37  22  55 NE9       30.27R
HILLSVILLE*    CLOUDY    33  27  80 S6        30.26F
RICHLANDS*     CLOUDY    43  32  66 SE6       30.17R
WISE*          CLOUDY    41  36  81 S5        30.17R
ABINGDON*      CLOUDY    42  28  57 E5        30.20R
$$

MDZ021>025-VAZ099-100-031500-
SOUTHERN MARYLAND AND THE DELMARVA PENINSULA

CITY           SKY/WX    TMP DP  RH WIND       PRES   REMARKS
PATUXENT RIVER CLOUDY    30  17  58 E8        30.45R
BAY BRIDGE APT   N/A     30  14  51 E7        30.46S
LEONARDTOWN    PTSUNNY   32  16  51 E9        30.45F
DOVER          PTSUNNY   28  14  55 E6        30.47R
GEORGETOWN     CLOUDY    29  15  56 NE7       30.47R
EASTON         SUNNY     30  18  59 E12       30.49  WCI  21
CAMBRIDGE      MOSUNNY   32  18  55 E5        30.46R
SALISBURY      CLOUDY    32  19  58 E6        30.47R
OCEAN CITY     PTSUNNY   31  20  63 NE7       30.46R
WALLOPS ISLAND PTSUNNY   32  23  69 E9        30.48R
ACCOMACK*      SUNNY     32  19  59 NE9       30.47R
$$

NCZ012>017-030>032-031500-
NORTH CENTRAL AND EASTERN NORTH CAROLINA

CITY           SKY/WX    TMP DP  RH WIND       PRES   REMARKS
ROANOKE RAPIDS CLOUDY    34  23  64 CALM      30.43F
RALEIGH        CLOUDY    37  20  50 E7G18     30.41R
ELIZABETH CITY SUNNY     37  27  67 NE5       30.44R
AHOSKIE*       CLOUDY    32  21  64 NE3       30.41F
EDENTON*       CLOUDY    36  28  71 NE10      30.41F
CURRITUCK*     SUNNY     38  26  63 N7        30.44S
KILL DEVIL HLS SUNNY     40  31  68 N7        30.41S
MANTEO         PTSUNNY   39  30  70 N13       30.43S
CAPE HATTERAS  CLOUDY    41  34  76 NE12G17   30.39R
TARBORO*       CLOUDY    36  22  57 NE5       30.44S
GOLDSBORO      CLOUDY    38  28  67 NE7       30.40R
WASHINGTON     CLOUDY    35  26  68 NE6       30.41F
GREENVILLE     CLOUDY    36  25  64 CALM      30.42S
NEW BERN       CLOUDY    40  26  57 E9        30.39F
WILMINGTON     CLOUDY    42  28  57 NE9       30.35F
$$

VAZ048-031500-
ELSEWHERE

CITY           SKY/WX    TMP DP  RH WIND       PRES   REMARKS
HARRISBURG PA  CLOUDY    25  11  55 SE5       30.42R
BALTIMORE      CLOUDY    28  15  58 E9        30.44S
ANNAPOLIS      CLOUDY    29  16  58 E7        30.47R
ANDREWS AFB    PTSUNNY   30  16  55 E8        30.42S
PHILADELPHIA   CLOUDY    28  11  48 E6        30.47F
HENDERSON NC   CLOUDY    34  18  52 E5        30.42R
GREENSBORO     CLOUDY    39  26  59 SE8       30.35R
ROCKY MOUNT    CLOUDY    36  21  54 NE6       30.43R
$$

VAZ100-031500-
MARINE

STATION/POSITION TIME  TEMP    WIND        PRES    WAVE   SWELL
                       AIR SEA DIR/SP/G            HT/PER HT/PER
                 (UTC) (F)     (DEG/KT/KT) (MB)    (FT/S) (FT/S)
BRANDYWINE LGT   1400   27      80/ 10/ 11   N/A
CAPE MAY NJ      1400   27      60/  5/  7   N/A
LEWES DE         1400   28      80/  6/  7   N/A
15NM E FENWICK I 1400   32 35              1031.0R   2/ 4
OCEAN-CITY-INLET 1400   31      70/  7/ 11   N/A
WACHAPREAGUE VA  1400   33      50/ 10/ 12   N/A
THOMAS POINT MD  1400   29 31   80/  6/  7 1032.6R
COVE POINT MD    1400   28     110/  4/  5   N/A
SOLOMONS ISLAND  1300      33                N/A
BISHOPS HEAD MD  1400   30      80/  7/  9   N/A
CAMBRIDGE MD     1400   29      80/  9/ 11   N/A
LEWISETTA VA     1400           90/  3/  7   N/A
RAPPAHANNOCK LGT 1400           40/  8/  8   N/A
STINGRAY PT      1400   31      70/ 10/ 12   N/A
YORK RVR RNG VA  1400   32      70/ 10/ 11   N/A
YORKTOWN VA      1400   32      80/  8/  9   N/A
DOMINION TERM VA 1400   33     350/  2/  4   N/A
KIPTOPEKE VA     1400           60/  7/ 10   N/A
CHES BAY BRIDGE  1400   32      40/  9/ 11   N/A
CAPE HENRY VA    1400   33      30/  8/ 10   N/A
CHESAPEAKE LGHT  1300   34      30/ 11/ 12 1031.4R
WILLOUBY STN VA  1400           50/  8/  9   N/A
S CRANEY ISL VA  1400           60/  6/  7   N/A
CAPE HENRY BUOY  1400      35                N/A     3/ 5
1ST LANDING BUOY 1400   33      40/ 10/ 12 1030.7R
OFFSHORE WE BUOY 1400      37                N/A     4/ 5   3/ 5
64NM E OF VA BCH 1400   46 62   70/  8/ 12 1029.8R   4/ 6   3/ 6
DUCK PIER NC     1400   36     350/  6/  7   N/A
44100 DUCK FRF   1400      37                N/A     4/ 6
44056 DUCK FRF   1400      34                N/A     4/ 6
OREGON INLET NC  1400   40     350/ 11/ 14   N/A
HATTERAS NC      1400   40      20/ 15/ 17   N/A
CAPE LOOKOUT NC  1300   41      20/ 16/ 18 1028.3R
$$


USA.gov is the U.S. government's official web portal to all federal, state and local government web resources and services.